Wind_Speed
33 32 30 27 24 22 18 16 14 13 17 19 18 19 20 19 21 22 21 20 20 21 23 26 25 23 23 21 21 22 25 27 27 28 29 31 31 31 31 31 32 34 35 35
32 31 28 26 24 25 25 23 20 18 21 24 22 22 24 25 24 26 26 26 27 29 31 29 27 25 27 26 24 26 28 29 30 31 32 33 34 34 33 34 35 37 38 39
31 27 26 26 25 28 29 27 23 21 24 27 26 24 25 28 29 29 30 32 33 33 32 29 29 29 30 31 29 30 31 32 33 33 34 35 36 36 37 37 38 40 41 41
30 28 27 26 26 27 28 27 26 27 27 26 26 25 24 25 28 30 33 35 35 33 33 33 33 33 34 34 34 34 34 35 35 35 36 37 38 39 40 40 41 43 44 43
25 28 29 28 27 27 25 23 25 28 30 29 27 27 23 22 27 31 35 35 33 33 33 34 35 36 36 37 37 37 37 36 36 37 38 39 40 41 42 42 44 45 45 44
22 24 26 27 26 26 26 26 26 27 28 30 28 26 23 23 29 36 39 35 33 33 34 35 36 37 38 38 38 38 37 37 37 38 39 40 42 43 43 44 45 45 45 45
20 21 23 25 25 25 25 26 24 23 25 25 21 23 26 30 33 38 39 37 35 35 35 36 37 37 37 38 38 37 37 37 38 38 39 41 42 43 44 45 45 46 46 46
13 16 19 22 23 23 23 24 23 18 14 14 15 21 29 34 36 38 39 40 40 40 39 37 36 36 35 35 36 35 36 36 37 38 39 41 43 44 46 47 47 47 46 46
10 10 14 17 19 21 21 22 21 21 20 18 15 22 30 32 33 35 38 40 41 41 40 38 36 34 33 33 33 33 34 35 36 38 40 42 43 45 47 47 48 48 48 48
15 11 12 14 16 18 19 19 20 24 23 21 18 22 29 29 30 32 34 37 38 38 36 34 33 32 31 32 32 33 34 35 36 38 40 42 44 46 47 48 48 49 50 51
14 12 10 12 13 14 17 19 21 23 22 22 20 23 28 27 30 32 33 33 31 30 30 30 31 31 31 32 32 34 35 36 38 39 41 43 44 46 47 49 50 52 53 54
14 14 13 12 11 13 15 18 20 23 24 24 23 27 31 31 33 33 31 29 29 28 29 30 31 32 33 34 35 36 37 39 40 41 43 45 47 48 50 51 53 54 55 56
11 12 12 12 13 16 18 18 19 22 24 25 24 29 31 32 34 33 33 32 31 30 31 32 33 35 36 37 38 39 40 42 43 45 46 48 49 51 53 54 55 55 56 57
10 12 13 14 16 18 19 21 21 21 23 25 27 31 33 33 34 34 32 31 31 32 32 34 35 37 39 40 42 44 45 46 47 48 50 52 53 54 54 55 56 56 56 56
10 12 14 16 16 16 16 17 19 21 22 25 28 32 35 37 36 35 34 32 31 32 33 35 38 40 42 44 45 46 47 48 50 51 52 54 54 54 54 55 55 54 55 55
9 12 14 16 17 18 17 19 21 23 24 27 31 34 36 36 36 37 35 32 33 33 35 37 40 42 43 45 46 46 47 47 49 49 49 50 51 52 52 52 52 52 53 54
11 12 14 15 17 17 18 23 24 26 28 30 32 34 37 40 41 40 38 37 37 36 36 37 37 39 41 42 42 44 45 46 46 46 45 45 46 48 49 50 50 51 52 53
11 12 14 15 16 17 23 25 26 27 30 31 33 35 38 39 41 42 41 40 38 39 39 38 38 37 38 39 40 41 41 40 42 43 44 45 46 46 47 48 49 49 50 50
11 12 12 13 15 19 23 24 24 26 29 30 31 33 35 36 37 38 38 37 37 36 36 36 37 37 38 39 39 40 41 41 42 43 44 46 46 47 47 48 48 48 49 49
12 13 13 14 16 20 24 24 24 25 28 28 29 30 30 31 33 34 34 34 33 33 34 34 35 37 38 38 39 39 40 41 42 43 44 45 46 46 47 47 47 47 47 47
14 14 15 16 17 20 21 23 23 24 25 25 25 26 27 28 27 28 29 29 29 30 30 32 33 34 35 36 38 39 39 40 41 42 43 44 44 45 45 45 45 45 44 44
15 16 16 17 17 19 18 19 21 22 23 23 23 23 23 23 23 23 25 26 27 28 29 30 31 32 33 35 36 37 38 39 40 41 42 42 43 43 43 42 42 41 40 39
16 16 17 18 18 18 17 17 18 19 20 20 21 21 21 21 21 22 23 24 25 27 28 29 30 31 32 33 34 36 37 38 39 40 40 41 41 40 40 39 38 37 36 34
18 17 17 18 18 17 16 17 17 17 17 17 18 19 19 20 20 21 22 23 23 24 25 26 28 29 30 31 33 34 35 36 37 38 38 38 38 37 36 34 33 31 29 28
18 18 18 18 17 17 16 16 16 16 16 17 18 18 18 18 19 19 20 20 21 22 23 24 25 26 27 29 30 31 33 34 35 36 36 35 34 32 30 27 25 23 21 20
18 18 18 17 17 17 16 16 16 16 16 17 17 17 17 17 17 17 17 18 19 20 20 22 23 24 25 26 28 30 32 33 33 33 31 29 27 25 22 20 18 16 15 14
Wind_Direction
214 215 216 218 217 213 204 221 229 228 237 242 226 204 193 205 221 224 224 226 232 235 238 241 248 258 265 270 277 284 288 290 291 292 293 294 295 296 300 303 306 308 310 311
213 214 214 215 216 214 213 213 208 211 224 237 233 216 206 209 222 227 226 225 229 233 236 242 246 253 266 271 273 278 283 285 285 286 286 287 289 291 294 296 298 300 303 305
213 212 215 214 216 219 219 217 208 210 226 238 239 232 222 222 225 231 234 231 232 237 242 248 252 258 266 271 274 276 279 281 281 281 281 282 284 287 287 289 292 294 297 299
211 212 215 217 218 223 224 222 217 214 223 234 242 243 236 238 239 237 240 240 241 244 248 253 257 262 266 270 273 276 277 278 277 277 278 278 280 281 283 286 288 289 291 294
212 216 220 220 220 224 225 222 226 226 227 231 236 242 240 245 246 243 244 246 250 253 255 257 259 262 265 269 272 275 276 276 275 275 275 276 277 279 280 282 284 286 289 292
212 221 226 226 223 224 225 224 227 232 234 237 237 240 240 239 243 245 251 255 259 261 261 261 261 262 265 268 270 272 273 274 273 274 274 275 277 278 279 281 284 286 289 291
213 222 231 229 226 226 227 227 231 239 242 248 250 247 241 237 240 247 255 261 264 265 266 266 265 264 265 267 269 270 271 271 272 273 273 274 276 278 280 282 285 287 288 289
227 230 234 234 228 229 233 230 227 229 248 264 260 249 242 242 243 248 253 259 264 267 269 269 267 266 265 266 267 268 268 269 269 271 272 273 275 277 279 282 284 285 287 288
199 228 235 237 233 229 231 233 228 222 219 235 247 242 241 247 249 252 255 259 263 267 268 269 267 266 265 265 266 266 266 267 268 269 271 273 275 277 279 282 283 285 286 287
186 201 223 235 237 233 231 232 229 226 225 230 234 254 260 261 259 258 260 261 262 264 265 265 265 266 265 265 265 265 266 266 268 269 270 272 274 276 279 281 282 284 285 286
200 197 209 228 237 231 233 228 227 231 230 234 241 251 257 259 255 256 256 257 258 259 260 262 263 263 264 264 265 265 266 267 268 269 271 272 274 276 278 280 281 283 284 285
208 204 204 218 229 224 232 235 233 235 234 232 239 258 259 261 264 265 261 261 257 255 255 258 259 261 262 263 264 265 265 267 268 269 271 273 274 275 277 278 280 281 282 283
217 218 216 222 227 224 226 229 230 237 238 237 237 253 255 258 261 263 264 263 258 255 254 256 258 260 261 262 263 264 266 268 269 271 272 273 274 275 276 277 278 280 281 282
221 222 226 237 240 233 227 228 227 231 237 241 240 249 253 258 263 263 261 257 255 254 255 257 259 261 262 263 264 266 267 269 271 272 272 273 274 275 277 278 278 280 281 283
231 234 241 252 268 265 252 248 241 239 238 244 249 248 253 255 260 262 262 257 257 258 260 261 262 263 265 266 266 267 269 270 272 273 273 274 275 275 277 278 279 280 282 284
256 252 252 255 265 272 274 269 260 251 251 249 250 254 255 260 263 265 268 266 265 264 265 266 266 266 267 267 267 269 272 273 273 272 274 275 276 277 278 279 281 283 285 287
274 270 265 261 256 257 260 260 260 260 262 261 259 259 260 265 269 272 273 272 275 277 277 274 272 271 272 272 273 275 274 274 274 275 276 278 280 281 282 285 287 287 288 289
287 281 275 268 265 261 257 261 262 265 267 267 265 263 264 266 269 270 273 275 278 278 277 279 280 279 278 279 279 277 276 277 281 285 288 289 291 291 292 292 291 290 290 290
305 295 284 273 261 261 263 265 266 268 271 271 269 268 268 269 269 271 275 276 280 281 281 281 281 280 281 283 284 285 287 289 291 294 294 294 294 294 293 293 292 292 292 292
313 305 295 285 273 261 266 269 272 272 273 275 274 274 274 274 275 276 278 280 282 283 284 283 284 284 286 288 289 291 293 295 296 296 296 295 295 295 295 294 294 294 293 293
315 309 304 297 286 278 278 276 276 277 282 281 278 277 277 279 279 280 281 282 284 285 286 287 289 290 291 293 296 297 298 298 298 298 298 298 297 297 296 296 296 296 296 295
314 310 306 302 296 289 288 282 279 280 281 283 283 283 284 284 285 284 285 287 289 290 292 294 295 296 297 298 299 300 300 301 301 301 301 300 300 299 298 297 297 297 296 296
316 312 306 303 299 297 293 289 287 287 287 287 287 289 290 290 289 290 291 291 293 294 295 297 299 300 301 303 304 305 306 306 306 305 304 304 303 302 301 299 298 298 297 296
320 317 309 305 303 301 297 293 292 292 292 293 293 295 294 295 296 296 296 297 297 298 300 301 303 304 306 308 309 310 310 311 310 309 308 307 306 305 304 302 301 300 299 298
319 316 312 308 307 305 302 298 296 296 296 298 299 299 300 301 301 301 302 303 303 304 305 306 308 310 312 313 314 314 315 315 314 313 311 309 308 307 306 305 304 303 303 303
322 318 314 311 310 306 304 302 301 301 301 300 302 302 300 301 303 306 308 308 309 310 311 314 316 317 318 319 319 319 319 320 320 318 317 315 313 311 311 310 309 308 310 312
Height
5792 5799 5804 5810 5815 5820 5824 5830 5835 5839 5841 5841 5844 5849 5852 5855 5859 5861 5863 5864 5866 5866 5866 5865 5865 5865 5867 5870 5872 5872 5871 5871 5871 5871 5870 5869 5868 5867 5866 5866 5864 5862 5860 5859
5788 5795 5801 5805 5810 5815 5819 5824 5830 5836 5838 5838 5840 5844 5848 5851 5854 5856 5857 5859 5859 5859 5859 5860 5861 5862 5863 5865 5867 5868 5867 5866 5866 5866 5865 5864 5863 5862 5861 5860 5858 5856 5854 5853
5784 5792 5796 5800 5806 5810 5814 5819 5825 5831 5833 5834 5836 5840 5843 5845 5848 5850 5852 5852 5852 5853 5856 5858 5859 5860 5860 5860 5861 5862 5861 5860 5860 5859 5858 5857 5856 5855 5854 5853 5851 5850 5848 5846
5780 5785 5791 5796 5801 5805 5810 5815 5819 5823 5827 5829 5832 5834 5838 5840 5842 5843 5844 5844 5847 5850 5852 5853 5854 5855 5855 5854 5854 5854 5854 5854 5853 5852 5851 5850 5849 5848 5847 5845 5844 5842 5840 5838
5777 5782 5786 5792 5797 5801 5805 5810 5814 5817 5819 5823 5826 5829 5834 5835 5835 5836 5835 5838 5842 5845 5847 5847 5848 5848 5848 5848 5847 5847 5846 5846 5845 5844 5843 5842 5841 5840 5838 5837 5836 5834 5832 5831
5775 5779 5783 5788 5792 5797 5801 5805 5808 5811 5814 5817 5821 5824 5828 5829 5828 5827 5827 5832 5836 5838 5839 5839 5840 5840 5840 5840 5840 5839 5839 5838 5837 5836 5835 5834 5833 5831 5829 5828 5827 5826 5824 5822
5773 5777 5780 5784 5788 5793 5796 5801 5804 5807 5810 5813 5817 5819 5821 5820 5820 5820 5823 5826 5828 5829 5830 5831 5831 5831 5832 5832 5831 5831 5831 5830 5829 5828 5826 5825 5824 5823 5821 5819 5818 5817 5816 5814
5772 5775 5778 5780 5784 5789 5792 5796 5801 5806 5810 5812 5814 5814 5814 5812 5814 5816 5818 5819 5820 5820 5821 5822 5822 5822 5822 5823 5823 5822 5822 5821 5821 5819 5818 5817 5816 5814 5812 5811 5809 5808 5806 5804
5770 5774 5776 5778 5781 5785 5788 5792 5797 5800 5802 5805 5808 5806 5803 5805 5808 5810 5811 5811 5811 5811 5812 5812 5812 5813 5813 5813 5814 5814 5813 5813 5812 5811 5810 5809 5807 5805 5803 5802 5800 5798 5796 5794
5767 5771 5774 5776 5779 5782 5786 5788 5792 5794 5797 5799 5803 5802 5800 5800 5801 5802 5802 5802 5802 5802 5802 5802 5803 5803 5804 5804 5804 5805 5805 5804 5804 5803 5802 5800 5798 5796 5794 5792 5790 5788 5785 5783
5765 5768 5772 5774 5776 5779 5782 5785 5787 5790 5793 5795 5798 5799 5791 5791 5791 5791 5791 5791 5792 5792 5793 5794 5794 5795 5795 5796 5796 5796 5796 5795 5794 5793 5792 5791 5789 5787 5784 5782 5779 5777 5774 5771
5763 5766 5768 5771 5774 5776 5778 5780 5782 5785 5786 5788 5791 5792 5785 5786 5784 5783 5782 5782 5783 5784 5785 5786 5786 5786 5787 5787 5787 5787 5786 5786 5785 5783 5782 5780 5778 5776 5773 5771 5768 5765 5762 5759
5761 5763 5766 5768 5771 5771 5772 5774 5776 5778 5780 5781 5783 5784 5780 5779 5777 5776 5775 5775 5776 5776 5776 5777 5778 5778 5778 5778 5778 5777 5776 5775 5774 5772 5770 5768 5766 5763 5761 5758 5755 5752 5749 5746
5759 5761 5763 5763 5762 5762 5765 5767 5768 5770 5772 5774 5774 5773 5772 5772 5770 5768 5766 5766 5766 5767 5767 5768 5768 5769 5768 5768 5767 5766 5765 5764 5762 5760 5758 5755 5753 5750 5748 5745 5742 5738 5735 5732
5757 5759 5759 5759 5758 5759 5760 5762 5763 5764 5764 5765 5764 5764 5764 5764 5763 5760 5759 5758 5758 5758 5758 5759 5759 5759 5758 5757 5756 5754 5753 5751 5749 5747 5745 5742 5739 5736 5734 5731 5728 5724 5721 5718
5755 5756 5756 5757 5757 5757 5757 5757 5757 5757 5757 5757 5757 5757 5756 5755 5754 5752 5751 5750 5750 5750 5750 5749 5749 5748 5747 5745 5744 5742 5741 5738 5736 5733 5731 5728 5725 5723 5720 5717 5714 5711 5707 5704
5752 5752 5752 5753 5753 5753 5753 5750 5751 5750 5749 5750 5751 5751 5749 5747 5746 5745 5743 5743 5743 5743 5742 5740 5738 5737 5736 5734 5732 5730 5728 5725 5723 5720 5717 5715 5712 5709 5706 5703 5700 5697 5693 5690
5749 5748 5748 5748 5749 5748 5747 5745 5745 5744 5743 5742 5743 5742 5741 5740 5739 5737 5736 5735 5734 5734 5733 5731 5729 5728 5726 5724 5722 5720 5717 5714 5711 5709 5706 5703 5700 5696 5693 5690 5687 5683 5679 5676
5745 5744 5743 5743 5743 5742 5740 5738 5738 5737 5735 5735 5734 5734 5733 5732 5730 5729 5728 5727 5726 5725 5724 5723 5721 5719 5717 5715 5712 5710 5707 5704 5700 5697 5694 5691 5687 5684 5680 5676 5673 5669 5665 5661
5742 5740 5739 5738 5737 5736 5735 5732 5731 5732 5728 5728 5727 5726 5725 5724 5723 5722 5721 5720 5719 5718 5716 5715 5713 5711 5709 5706 5703 5700 5697 5694 5690 5687 5683 5679 5675 5671 5666 5663 5659 5655 5651 5647
5739 5737 5735 5733 5732 5729 5728 5727 5727 5727 5725 5722 5720 5719 5719 5718 5717 5716 5714 5713 5712 5711 5709 5708 5705 5703 5701 5697 5694 5691 5687 5684 5679 5675 5671 5666 5662 5658 5654 5649 5645 5642 5638 5634
5736 5734 5731 5729 5727 5727 5724 5722 5722 5721 5718 5716 5715 5714 5713 5712 5711 5710 5709 5708 5706 5704 5702 5700 5698 5695 5692 5689 5685 5682 5678 5673 5669 5664 5659 5655 5650 5646 5642 5637 5633 5629 5626 5623
5733 5731 5728 5726 5725 5721 5719 5718 5716 5715 5713 5712 5711 5710 5709 5708 5707 5705 5704 5703 5701 5699 5696 5694 5691 5688 5684 5680 5676 5673 5668 5663 5658 5654 5649 5644 5639 5634 5630 5626 5622 5618 5615 5612
5729 5727 5724 5721 5719 5717 5715 5714 5712 5711 5709 5708 5707 5705 5704 5703 5702 5700 5699 5697 5695 5693 5690 5687 5684 5681 5677 5673 5669 5664 5660 5654 5649 5644 5638 5633 5628 5623 5619 5615 5612 5609 5606 5603
5726 5723 5721 5718 5716 5713 5711 5710 5708 5707 5706 5704 5703 5701 5700 5699 5697 5695 5694 5692 5690 5687 5685 5682 5679 5675 5671 5667 5663 5658 5653 5648 5642 5635 5629 5624 5619 5614 5610 5607 5603 5601 5599 5597
5723 5720 5718 5715 5713 5710 5709 5707 5705 5704 5702 5701 5699 5698 5696 5695 5693 5691 5690 5688 5685 5683 5680 5677 5674 5670 5666 5662 5658 5653 5647 5641 5635 5628 5622 5616 5612 5608 5604 5602 5599 5596 5595 5593